Rolla, MO

7:55 AM CDT on July 24, 2017 (GMT -0500)
Rolla National

Weather History for KVIH - March, 2014

Change the Weather History Date:

Monday, March 31, 2014

  Actual Average Record
Temperature  
Mean Temperature 58 °F 50 °F  
Max Temperature 66 °F 62 °F 84 °F (2010)
Min Temperature 49 °F 39 °F 20 °F (1899)
Degree Days  
Heating Degree Days 7 15  
Month to date heating degree days 751 614  
Since 1 July heating degree days 5057 4404  
Cooling Degree Days 0 0  
Month to date cooling degree days 0 4  
Year to date cooling degree days 0 4  
Growing Degree Days 6 (Base 50)    
Moisture  
Dew Point 40 °F    
Average Humidity 54    
Maximum Humidity 71    
Minimum Humidity 36    
Precipitation  
Precipitation 0.01 in 0.15 in 1.60 in (2008)
Month to date precipitation 0.71 3.45  
Year to date precipitation 2.17 7.55  
Sea Level Pressure  
Sea Level Pressure 29.86 in    
Wind  
Wind Speed 17 mph (South)    
Max Wind Speed 32 mph    
Max Gust Speed 48 mph    
Visibility 10 miles    
Events Thunderstorm    
T = Trace of Precipitation, MM = Missing Value Source: NWS Daily Summary

Daily Weather History Graph

Daily Weather History Graph

Search for Another Location

Airport or City:

Trip Planner

Search our weather history database for the weather conditions in past years. The results will help you decide how hot, cold, wet, or windy it might be!

Date:

Astronomy

Mar. 31, 2014 Rise Set
Actual Time 6:53 AM CDT 7:29 PM CDT
Civil Twilight 6:27 AM CDT 7:55 PM CDT
Nautical Twilight 5:55 AM CDT 8:27 PM CDT
Astronomical Twilight 5:23 AM CDT 8:59 PM CDT
Moon 7:18 AM CDT (3/31) 8:47 PM CDT (3/31)
Length of Visible Light 13h 28m
Length of Day
12h 35m
New Moon, 1% of the Moon is Illuminated
Mar 31
New Moon
Apr 7
First Quarter
Apr 15
Full
Apr 22
Last Quarter
Apr 29
New

Hourly Weather History & Observations

Time (CDT) Temp. Dew Point Humidity Pressure Visibility Wind Dir Wind Speed Gust Speed Precip Events Conditions
12:53 AM 50.0 °F 39.9 °F 68% 29.97 in 10.0 mi SSE 16.1 mph - N/A   Clear
1:53 AM 50.0 °F 39.9 °F 68% 29.95 in 10.0 mi SSE 13.8 mph - N/A   Clear
2:53 AM 48.9 °F 39.9 °F 71% 29.94 in 10.0 mi SSE 16.1 mph - N/A   Clear
3:53 AM 50.0 °F 39.0 °F 66% 29.92 in 10.0 mi SSE 16.1 mph - N/A   Clear
4:53 AM 48.9 °F 39.0 °F 69% 29.92 in 10.0 mi SSE 15.0 mph - N/A   Clear
5:53 AM 48.9 °F 39.0 °F 69% 29.91 in 10.0 mi SSE 16.1 mph - N/A   Clear
6:53 AM 48.9 °F 39.0 °F 69% 29.90 in 10.0 mi SSE 15.0 mph - N/A   Clear
7:53 AM 50.0 °F 39.9 °F 68% 29.90 in 10.0 mi SSE 13.8 mph 23.0 mph N/A   Clear
8:53 AM 54.0 °F 41.0 °F 62% 29.86 in 10.0 mi SSE 13.8 mph - N/A   Clear
9:53 AM 59.0 °F 39.9 °F 49% 29.88 in 10.0 mi South 20.7 mph 28.8 mph N/A   Mostly Cloudy
10:53 AM 59.0 °F 39.0 °F 48% 29.86 in 10.0 mi South 24.2 mph 34.5 mph N/A   Mostly Cloudy
11:53 AM 59.0 °F 37.0 °F 44% 29.86 in 10.0 mi South 23.0 mph 26.5 mph 0.00 in   Partly Cloudy
12:25 PM 60.1 °F 37.0 °F 42% 29.88 in 10.0 mi SSW 19.6 mph 31.1 mph N/A Thunderstorm Thunderstorm
12:53 PM 59.0 °F 41.0 °F 51% 29.85 in 10.0 mi South 12.7 mph - 0.01 in   Overcast
1:53 PM 59.0 °F 37.9 °F 46% 29.79 in 10.0 mi South 21.9 mph 33.4 mph N/A   Mostly Cloudy
2:53 PM 61.0 °F 37.0 °F 41% 29.78 in 10.0 mi South 15.0 mph 25.3 mph N/A   Clear
3:53 PM 63.0 °F 35.1 °F 35% 29.72 in 10.0 mi South 19.6 mph 34.5 mph N/A   Clear
4:53 PM 64.9 °F 39.0 °F 39% 29.76 in 10.0 mi SSW 24.2 mph 34.5 mph N/A   Partly Cloudy
5:53 PM 62.1 °F 39.9 °F 44% 29.78 in 10.0 mi South 24.2 mph - N/A   Partly Cloudy
6:53 PM 60.1 °F 42.1 °F 51% 29.81 in 10.0 mi SSW 24.2 mph 29.9 mph N/A   Mostly Cloudy
7:53 PM 57.9 °F 41.0 °F 53% 29.81 in 10.0 mi South 17.3 mph 29.9 mph N/A   Clear
8:53 PM 57.0 °F 43.0 °F 59% 29.83 in 10.0 mi South 16.1 mph - N/A   Clear
9:53 PM 57.0 °F 42.1 °F 57% 29.86 in 10.0 mi SSW 15.0 mph - N/A   Mostly Cloudy
10:53 PM 55.0 °F 43.0 °F 64% 29.88 in 10.0 mi SSW 12.7 mph - N/A   Clear
11:53 PM 55.0 °F 45.0 °F 69% 29.90 in 10.0 mi SW 13.8 mph - N/A   Clear